This is the latest recevied weather packets stored in our database for station/object DO1BDB-12. If no packets are shown the sender has not sent any weather packets the latest 10 day(s).
| Time | Temp. | Humidity | Pressure | Rain* | Wind** | Luminosity | Snow |
|---|---|---|---|---|---|---|---|
| 1777898948 | 23.89° C | 43% | 101.2 hPa | - | - | - | - |
| 1777898882 | 24.44° C | 47% | 101.2 hPa | - | - | - | - |
| 1777898816 | 22.22° C | 47% | 101.2 hPa | - | - | - | - |
| 1777898750 | 21.67° C | 49% | 101.2 hPa | - | - | - | - |
| 1777898684 | 20.56° C | 50% | 101.2 hPa | - | - | - | - |
| 1777898619 | 21.67° C | 48% | 101.2 hPa | - | - | - | - |
| 1777898553 | 21.67° C | 49% | 101.2 hPa | - | - | - | - |
| 1777898487 | 23.33° C | 46% | 101.2 hPa | - | - | - | - |
| 1777898422 | 23.33° C | 45% | 101.2 hPa | - | - | - | - |
| 1777898355 | 23.33° C | 46% | 101.2 hPa | - | - | - | - |
| 1777898289 | 23.33° C | 47% | 101.2 hPa | - | - | - | - |
| 1777898223 | 23.33° C | 46% | 101.2 hPa | - | - | - | - |
| 1777898158 | 23.33° C | 46% | 101.2 hPa | - | - | - | - |
| 1777898092 | 23.33° C | 43% | 101.2 hPa | - | - | - | - |
| 1777898026 | 23.89° C | 43% | 101.2 hPa | - | - | - | - |
| 1777897960 | 25° C | 42% | 101.2 hPa | - | - | - | - |
| 1777897894 | 24.44° C | 45% | 101.2 hPa | - | - | - | - |
| 1777897829 | 22.78° C | 45% | 101.2 hPa | - | - | - | - |
| 1777897763 | 22.78° C | 46% | 101.2 hPa | - | - | - | - |
| 1777897697 | 22.78° C | 45% | 101.2 hPa | - | - | - | - |
| 1777897631 | 23.33° C | 45% | 101.2 hPa | - | - | - | - |
| 1777897565 | 22.78° C | 47% | 101.2 hPa | - | - | - | - |
| 1777897499 | 21.67° C | 47% | 101.2 hPa | - | - | - | - |
| 1777897433 | 21.67° C | 47% | 101.2 hPa | - | - | - | - |
| 1777897368 | 22.22° C | 47% | 101.2 hPa | - | - | - | - |
* Rain since midnight (hover to see other rain measurements)
** Current wind speed in m/s (hover to see current wind gust speed)